Hourly Data Report for June 09, 2003

SHERBROOKE A
QUEBEC

45°26'00.000" N
71°41'00.000" W
241.40 m
7028124
71610
YSC

Download Data

Hourly Data (June 2003)
Hourly Data Report for June 9, 2003
TIME
LST
Temp Definition
°C
Dew Point Definition
°C
Rel Hum Definition
%
Precip. Amount Definition
mm

Wind Dir Definition
10's deg

Wind Spd Definition
km/h
Visibility Definition
km
Stn Press Definition
kPa
Hmdx Definition


Wind Chill Definition


Weather Definition


00:00 14.3 11.9 85   13 9 15.0 98.14      
01:00 14.6 11.9 84   13 15 15.0 98.07      
02:00 13.5 11.6 88   14 11 15.0 98.02      
03:00 14.3 11.4 83   14 15 15.0 97.96      
04:00 14.9 11.3 79   15 13 15.0 97.92      
05:00 15.0 11.3 79   16 11 15.0 97.93      
06:00 15.3 11.1 76   15 17 15.0 97.92      
07:00 15.0 11.6 80   15 7 24.1 97.89     Rain
08:00 14.6 12.1 85   16 7 24.1 97.90     Rain
09:00 14.6 12.6 88   16 7 24.1 97.89     Rain
10:00 15.6 12.9 84   17 15 24.1 97.88     Mostly Cloudy
11:00 16.9 12.7 76   16 22 24.1 97.83     Mostly Cloudy
12:00 19.9 13.7 67   17 22 24.1 97.72     Mainly Clear
13:00 20.4 13.1 63   18 22 24.1 97.63     Mostly Cloudy
14:00 19.7 12.4 63   19 22 24.1 97.58     Mostly Cloudy
15:00 20.6 12.8 61   16 19 24.1 97.52     Mainly Clear
16:00 20.4 12.8 62   18 22 24.1 97.50     Mostly Cloudy
17:00 19.0 13.3 70   20 15 15.0 97.49      
18:00 17.1 15.2 89   26 4 15.0 97.53     Rain
19:00 16.3 14.4 89   19 4 15.0 97.51      
20:00 15.4 13.8 90   19 9 11.3 97.54      
21:00 14.8 12.2 84   19 7 15.0 97.63      
22:00 15.1 12.1 82   23 9 15.0 97.64      
23:00 14.8 11.5 81   21 4 15.0 97.62      

Notes on Data Quality.

Legend

  • E = Estimated
  • M = Missing
  • NA = Not Available*
  • [empty] = Indicates an unobserved value
Date modified: